Regional Weather Roundup
Issued by NWS

Home | Current Version | Previous Version | Text Only | Print | Product List | Glossary Off
Versions: 1 2 3 4 5 6 7 8 9 10 11 12 13 14 15 16 17 18 19 20 21 22 23 24 25 26 27 28 29 30 31 32 33 34 35 36 37 38 39 40 41 42 43 44 45 46 47 48 49 50

000
ASUS45 KPSR 270400
RWRAZ

PRELIMINARY ARIZONA REGIONAL HOURLY WEATHER ROUNDUP
NATIONAL WEATHER SERVICE PHOENIX AZ
900 PM MST WED NOV 26 2014

NOTE: FAIR INDICATES FEW OR NO CLOUDS BELOW 12,000 FEET WITH NO
SIGNIFICANT WEATHER AND/OR OBSTRUCTIONS TO VISIBILITY.

AZZ001>003-036-270500-
NORTHWEST ARIZONA

CITY           SKY/WX    TMP DP  RH WIND       PRES   REMARKS
KINGMAN        CLEAR     44  17  33 S3        30.32F
$$

AZZ004>008-015-016-018-270500-
NORTH CENTRAL ARIZONA

CITY           SKY/WX    TMP DP  RH WIND       PRES   REMARKS
GRAND CANYON   PTCLDY    25   9  50 E3        30.47S
PRESCOTT       CLEAR     42  20  41 S6        30.38R
FLAGSTAFF      NOT AVBL
PAYSON         CLEAR     54  14  20 NE7       30.38S
PAGE           CLEAR     45  19  35 CALM      30.39R HAZE
$$

AZZ009>014-017-270500-
NORTHEAST ARIZONA

CITY           SKY/WX    TMP DP  RH WIND       PRES   REMARKS
WINSLOW        NOT AVBL
SAINT JOHNS    PTCLDY    38  18  44 S9        30.43R WCI  31
SHOW LOW       CLEAR     36  16  44 E6        30.47R WCI  31
$$

AZZ023-270500-
GREATER PHOENIX AREA

CITY           SKY/WX    TMP DP  RH WIND       PRES   REMARKS
PHOENIX        CLEAR     62  22  21 CALM      30.17S
LUKE AFB       CLEAR     54  32  43 NW6       30.18S HAZE
DEER VALLEY    CLEAR     59  18  20 NE7       30.19S
SCOTTSDALE     CLEAR     58  21  24 CALM      30.20S
MESA-GATEWAY   CLEAR     52  21  30 VRB5      30.21
CHANDLER       CLEAR     55  30  38 S5        30.19R
$$

AZZ027-028-270500-
SOUTHWEST MARICOPA COUNTY AND PINAL COUNTY

CITY           SKY/WX    TMP DP  RH WIND       PRES   REMARKS
CASA GRANDE    CLEAR     54  16  22 CALM      30.20S
$$

AZZ503-504-507>509-270500-
SOUTHEAST ARIZONA

CITY           SKY/WX    TMP DP  RH WIND       PRES   REMARKS
TUCSON         CLEAR     54  16  22 E5        30.25R
DAVIS-MONTHAN  CLEAR     52  17  25 SE6       30.23R
NOGALES        CLEAR     48  18  30 E6        30.26R
SIERRA VISTA   CLEAR     55  16  21 CALM      30.32R
SAFFORD        CLEAR     47  13  25 E7        30.27R
$$

AZZ020-021-025-026-031-270500-
SOUTHWEST ARIZONA

CITY           SKY/WX    TMP DP  RH WIND       PRES   REMARKS
YUMA           CLEAR     62  30  29 W5        30.16S
$$

CAZ031-033-041-043-047-048-061-270500-
SOUTHERN CALIFORNIA

CITY           SKY/WX    TMP DP  RH WIND       PRES   REMARKS
DOWNTOWN L.A.  CLEAR     64  45  49 CALM      30.12S
L.A. AIRPORT   CLEAR     64  51  62 W7        30.13F
SAN DIEGO      CLEAR     68  49  50 CALM      30.13S
BURBANK        CLEAR     67  25  20 CALM      30.15S
ONTARIO        CLEAR     63  31  30 N3        30.16S
RIVERSIDE      CLEAR     67  27  22 SE6       30.17R
PALM SPRINGS   CLEAR     62  22  21 NW7       30.21S
EL CENTRO NAS  CLEAR     58  37  45 CALM      30.17R
IMPERIAL       CLEAR     58  37  45 CALM      30.16S
BLYTHE         CLEAR     63  15  15 W5        30.18S
$$

NVZ020-UTZ003-270500-
SOUTHERN NEVADA-UTAH

CITY           SKY/WX    TMP DP  RH WIND       PRES   REMARKS
LAS VEGAS      NOT AVBL
SALT LAKE CITY PTCLDY    46  29  51 SE12      30.35S
$$

NMZ009-TXZ055-270500-
NEW MEXICO-WEST TEXAS

CITY           SKY/WX    TMP DP  RH WIND       PRES   REMARKS
ALBUQUERQUE    CLEAR     50  23  34 N5        30.40R
EL PASO        CLEAR     52  20  28 NE3       30.32R
$$


........................KEY........................
SKY/WX - SKY CONDITION/WEATHER
TMP    - TEMPERATURE IN FAHRENHEIT
DP     - DEW POINT IN FAHRENHEIT
RH     - RELATIVE HUMIDITY IN PERCENT
WIND   - DIRECTION AND SPEED IN MILES PER HOUR (MPH)
VRB    - VARIABLE WIND DIRECTION
PRES   - MEAN SEA LEVEL PRESSURE IN INCHES OF MERCURY
         F - FALLING PRESSURE   R - RISING PRESSURE
         S - STEADY PRESSURE
VSB    - VISIBILITY IN MILES
HX     - HEAT INDEX IN FAHRENHEIT
WCI    - WIND CHILL INDEX IN FAHRENHEIT
TC     - TEMPERATURE IN CELSIUS WHICH IS ALSO KNOWN AS
         TEMPERATURE IN CENTIGRADE
AFB    - AIR FORCE BASE
         LUKE AFB IS LUKE AIR FORCE BASE
         DAVIS-MONTHAN IS DAVIS-MONTHAN AIR FORCE BASE
NAS    - NAVAL AIR STATION
         EL CENTRO NAS IS EL CENTRO NAVAL AIR STATION
N/A    - NOT AVAILABLE



USA.gov is the U.S. government's official web portal to all federal, state and local government web resources and services.